Le nostre stazioni meteo in Italia

Pubblicità
Il mio iltempo24.it
Paganella, Italia (16022): Temperatura & dewpoint: 15.01.2020 03:00:00 - 21.01.2020 03:00:00 (CET)Paganella, Italia (16022): velocità del vento: 15.01.2020 03:00:00 - 21.01.2020 03:00:00 (CET)Paganella, Italia (16022): direzione del vento: 15.01.2020 03:00:00 - 21.01.2020 03:00:00 (CET)Paganella, Italia (16022): visibility: 15.01.2020 03:00:00 - 21.01.2020 03:00:00 (CET)Paganella, Italia (16022): ore di luce: 15.01.2020 03:00:00 - 21.01.2020 03:00:00 (CET)
Data & Tempo tt [°C] td [°C] ff [km/h] ff [kn] dd vv [km] sd [min]
21.01.2020 03:00:00 -6,4 -21,9 18 10 N 50 -
21.01.2020 02:00:00 -7,0 -21,3 18 10 N 50 -
21.01.2020 01:00:00 -7,6 -21,1 26 14 N 50 -
21.01.2020 00:00:00 -8,4 -19,6 26 14 N 50 -
20.01.2020 23:00:00 -8,2 -19,1 34 18 N 50 -
20.01.2020 22:00:00 -8,8 -19,4 16 9 N 50 -
20.01.2020 21:00:00 -8,8 -19,4 13 7 N 50 -
20.01.2020 20:00:00 -9,0 -19,6 15 8 N 50 -
20.01.2020 19:00:00 -9,0 -20,1 13 7 N 50 -
20.01.2020 18:00:00 -8,6 -20,4 13 7 NNO 60 0
20.01.2020 17:00:00 -9,0 -20,7 15 8 N 60 36
20.01.2020 16:00:00 -9,0 -20,7 15 8 ENE 70 60
20.01.2020 15:00:00 -9,0 -20,7 18 10 NNO 60 60
20.01.2020 14:00:00 -10,0 -21,3 22 12 N 60 60
20.01.2020 13:00:00 -10,5 -20,7 28 15 N 60 60
20.01.2020 12:00:00 -10,7 -20,3 22 12 N 60 60
20.01.2020 11:00:00 -11,1 -19,7 28 15 N 60 60
20.01.2020 10:00:00 -11,8 -19,9 37 20 N 60 60
20.01.2020 09:00:00 -11,8 -19,7 39 21 N 70 54
20.01.2020 08:00:00 -11,8 -19,7 39 21 N 70 0
20.01.2020 07:00:00 -11,8 -19,7 35 19 N 40 -
20.01.2020 06:00:00 -11,7 -19,8 39 21 N 40 -
20.01.2020 05:00:00 -11,8 -19,7 37 20 NNO 40 -
20.01.2020 04:00:00 -11,8 -19,5 41 22 N 40 -
20.01.2020 03:00:00 -11,7 -18,9 46 25 NNO 40 -
20.01.2020 02:00:00 -11,7 -18,1 46 25 NNO 40 -
20.01.2020 01:00:00 -11,7 -17,9 46 25 NNO 40 -
20.01.2020 00:00:00 -11,2 -17,6 46 25 NNO 40 -
19.01.2020 23:00:00 -12,0 -19,0 44 24 N 40 -
19.01.2020 22:00:00 -11,0 -18,3 41 22 N 40 -
19.01.2020 21:00:00 -10,8 -18,3 46 25 N 50 -
19.01.2020 20:00:00 -10,6 -18,3 46 25 N 70 -
19.01.2020 19:00:00 -10,2 -18,6 41 22 N 70 -
19.01.2020 18:00:00 -9,6 -18,1 29 16 N 70 0
19.01.2020 17:00:00 -9,0 -17,3 28 15 N 70 36
19.01.2020 16:00:00 -8,6 -16,9 29 16 N 70 6
19.01.2020 15:00:00 -8,6 -15,8 34 18 N 70 6
19.01.2020 14:00:00 -8,8 -16,6 29 16 N 70 60
19.01.2020 13:00:00 -9,4 -17,4 41 22 N 70 60
19.01.2020 12:00:00 -9,4 -17,4 37 20 N 70 60
19.01.2020 11:00:00 -9,8 -18,3 41 22 N 70 60
19.01.2020 10:00:00 -10,0 -18,0 37 20 N 70 60
19.01.2020 09:00:00 -10,2 -18,4 34 18 N 50 60
19.01.2020 08:00:00 -10,2 -18,0 41 22 N 40 0
19.01.2020 07:00:00 -10,2 -17,1 37 20 N 40 -
19.01.2020 06:00:00 -10,0 -16,5 37 20 N 40 -
19.01.2020 05:00:00 -9,9 -16,2 34 18 N 40 -
19.01.2020 04:00:00 -9,7 -15,4 34 18 N 40 -
19.01.2020 03:00:00 -9,7 -14,8 31 17 N 30 -
19.01.2020 02:00:00 -9,7 -13,6 34 18 N 30 -
19.01.2020 01:00:00 -9,4 -12,5 37 20 N 30 -
19.01.2020 00:00:00 -9,0 -11,2 34 18 N 30 -
18.01.2020 23:00:00 -8,8 -10,3 35 19 N 20 -
18.01.2020 22:00:00 -8,4 -9,5 22 12 N 0,9 -
18.01.2020 21:00:00 -8,2 -9,0 34 18 N 0,9 -
18.01.2020 20:00:00 -8,0 -8,7 31 17 N 0,9 -
18.01.2020 19:00:00 -7,7 -8,4 34 18 N 0,9 -
18.01.2020 18:00:00 -7,4 -7,8 34 18 N - 0
18.01.2020 17:00:00 -7,3 -7,5 37 20 N - 0
18.01.2020 16:00:00 -7,0 -7,3 37 20 NNO - 0
18.01.2020 15:00:00 -6,6 -6,9 41 22 N - 0
18.01.2020 14:00:00 -6,6 -7,4 37 20 N 0,1 0
18.01.2020 13:00:00 -6,4 -7,1 37 20 N 0,8 0
18.01.2020 12:00:00 -6,1 -6,4 34 18 NNO 0,9 0
18.01.2020 11:00:00 -6,0 -6,3 34 18 N 0,6 0
18.01.2020 10:00:00 -6,0 -6,0 34 18 N 0,3 0
18.01.2020 09:00:00 -5,8 -5,8 42 23 N 0,9 0
18.01.2020 08:00:00 -5,8 -5,8 41 22 N - 0
18.01.2020 07:00:00 -5,8 -5,8 37 20 N - -
18.01.2020 06:00:00 -6,0 -6,0 29 16 N 0,1 -
18.01.2020 05:00:00 -6,0 -6,0 26 14 N 0,1 -
18.01.2020 04:00:00 -5,8 -5,8 16 9 N 0,5 -
18.01.2020 03:00:00 -5,0 -5,7 11 6 N 0,9 -
18.01.2020 02:00:00 -5,0 -7,1 11 6 N 20 -
18.01.2020 01:00:00 -5,0 -6,5 9 5 N 20 -
18.01.2020 00:00:00 -5,2 -5,5 11 6 N 15 -
17.01.2020 23:00:00 -5,2 -5,6 9 5 N 20 -
17.01.2020 22:00:00 -5,0 -6,7 9 5 N 20 -
17.01.2020 21:00:00 -5,0 -6,5 4 2 N 30 -
17.01.2020 20:00:00 -4,8 -6,9 5 3 S 0,9 -
17.01.2020 19:00:00 -4,2 -6,6 0 0 N 0,9 -
17.01.2020 18:00:00 -4,6 -5,3 0 0 N 0,9 0
17.01.2020 17:00:00 -4,7 -4,7 13 7 SO 0,6 0
17.01.2020 16:00:00 -4,0 -6,5 9 5 SSO 0,1 36
17.01.2020 15:00:00 -3,6 -5,3 5 3 SSO 50 48
17.01.2020 14:00:00 -3,8 -5,5 8 4 SSO 50 36
17.01.2020 13:00:00 -3,8 -5,2 9 5 SSO 50 36
17.01.2020 12:00:00 -3,8 -5,3 9 5 S 50 60
17.01.2020 11:00:00 -4,0 -5,4 11 6 SSO 50 60
17.01.2020 10:00:00 -4,4 -5,1 9 5 SSO 50 60
17.01.2020 09:00:00 -4,8 -5,1 8 4 SO 50 12
17.01.2020 08:00:00 -5,0 -5,8 9 5 SSO 50 0
17.01.2020 07:00:00 -4,9 -6,1 9 5 SSO 40 -
17.01.2020 06:00:00 -4,6 -7,0 8 4 S 40 -
17.01.2020 05:00:00 -4,6 -6,6 8 4 S 40 -
17.01.2020 04:00:00 -3,6 -7,9 8 4 S 40 -
17.01.2020 03:00:00 -3,0 -8,6 0 0 N 60 -
17.01.2020 02:00:00 -2,4 -8,3 0 0 N 60 -
17.01.2020 01:00:00 -2,2 -8,7 0 0 N 60 -
17.01.2020 00:00:00 -1,8 -8,7 0 0 N 60 -
16.01.2020 23:00:00 -1,8 -9,0 0 0 N 60 -
16.01.2020 22:00:00 -1,6 -8,8 4 2 N 50 -
16.01.2020 21:00:00 -1,4 -8,4 4 2 N 60 -
16.01.2020 20:00:00 -1,2 -8,2 4 2 N 60 -
16.01.2020 19:00:00 -2,2 -9,1 4 2 S 60 -
16.01.2020 18:00:00 -1,0 -8,2 5 3 SSE 60 0
16.01.2020 17:00:00 -0,8 -8,7 5 3 S 60 60
16.01.2020 16:00:00 -0,4 -8,3 5 3 SSE 60 60
16.01.2020 15:00:00 -0,4 -8,6 8 4 S 60 60
16.01.2020 14:00:00 -0,1 -8,3 4 2 N 60 60
16.01.2020 13:00:00 0,0 -8,7 4 2 N 60 60
16.01.2020 12:00:00 -0,2 -9,1 4 2 N 60 60
16.01.2020 11:00:00 -0,6 -7,8 15 8 N 60 60
16.01.2020 10:00:00 -1,2 -7,5 9 5 N 60 60
16.01.2020 09:00:00 -1,7 -8,9 11 6 N 60 42
16.01.2020 08:00:00 -2,0 -9,4 11 6 N 60 0
16.01.2020 07:00:00 -2,0 -9,2 13 7 N 40 -
16.01.2020 06:00:00 -2,4 -9,3 15 8 N 40 -
16.01.2020 05:00:00 -1,8 -8,7 15 8 N 40 -
16.01.2020 04:00:00 -2,8 -8,8 11 6 N 40 -
16.01.2020 03:00:00 -2,6 -9,3 11 6 N 40 -
16.01.2020 02:00:00 -2,2 -9,3 13 7 N 40 -
16.01.2020 01:00:00 -3,6 -6,5 11 6 N 40 -
16.01.2020 00:00:00 -3,8 -6,4 5 3 N 40 -
15.01.2020 23:00:00 -4,0 -6,1 4 2 N 40 -
15.01.2020 22:00:00 -3,4 -7,7 9 5 N 40 -
15.01.2020 21:00:00 -2,7 -8,4 5 3 N 40 -
15.01.2020 20:00:00 -2,4 -9,5 0 0 N 60 -
15.01.2020 19:00:00 -2,4 -8,7 0 0 N 50 -
15.01.2020 18:00:00 -1,9 -8,2 0 0 N 60 12
15.01.2020 17:00:00 -1,8 -7,5 5 3 N 50 36
15.01.2020 16:00:00 -1,0 -8,4 4 2 N 60 60
15.01.2020 15:00:00 -0,6 -7,6 0 0 N 60 60
15.01.2020 14:00:00 0,1 -11,3 5 3 S 60 60
15.01.2020 13:00:00 0,2 -11,2 0 0 N 60 60
15.01.2020 12:00:00 -0,2 -12,8 0 0 N 60 60
15.01.2020 11:00:00 -0,8 -13,7 4 2 N 60 60
15.01.2020 10:00:00 -1,8 -13,6 5 3 N 60 60
15.01.2020 09:00:00 -2,1 -13,3 4 2 N 60 24
15.01.2020 08:00:00 -1,8 -12,7 0 0 N 60 0
15.01.2020 07:00:00 -2,0 -12,4 0 0 N 40 -
15.01.2020 06:00:00 -2,2 -12,8 9 5 S 40 -
15.01.2020 05:00:00 -2,0 -14,1 8 4 S 40 -
15.01.2020 04:00:00 -2,0 -13,8 8 4 S 40 -
15.01.2020 03:00:00 -1,8 -14,9 0 0 N 40 -

tt = Temperatura
td = dewpoint
ff = velocità del vento
dd = direzione del vento
vv = visibility
sd = ore di luce

Stazioni seguenti

WeatherPro
AMSI
MeteoEarth